TRA2603 EHAM-LTAI

Flight info

Callsign TRA2603
Flight time 3h 24m
Altitude 37000
Route EDUPO Z739 MISGO DCT DIXAT DCT TIVUN DCT ESAMA DCT OSBIT DCT TENLO DCT LAMSI DCT BARUG DCT SASAL DCT SOGMO DCT BABIT DCT NISVA DCT USALI DCT RODIP DCT BELGI UN131 KOZLU
Aircraft B738/M-SDE2E3FGHIJ1RWXYZ/LB1

Departure

Time 2026-05-04 13:43
Airport Amsterdam Airport Schiphol (EHAM)

Arrival

Time 2026-05-04 17:08
Airport Antalya International Airport (LTAI)
Time Latitude Longitude Altitude Speed Heading
2026-05-04 13:01 52.30895 4.77367 -2 ft 0 kts
2026-05-04 13:37 52.30882 4.77366 -2 ft 3 kts 356°
2026-05-04 13:37 52.30861 4.77370 -2 ft 3 kts 357°
2026-05-04 13:37 52.30851 4.77371 -2 ft 3 kts 37°
2026-05-04 13:38 52.30842 4.77341 -2 ft 3 kts 79°
2026-05-04 13:38 52.30841 4.77337 -2 ft 1 kts 79°
2026-05-04 13:40 52.30840 4.77372 -2 ft 7 kts 96°
2026-05-04 13:40 52.30826 4.77448 -2 ft 7 kts 136°
2026-05-04 13:40 52.30778 4.77462 -2 ft 7 kts 181°
2026-05-04 13:41 52.30730 4.77460 -2 ft 7 kts 181°
2026-05-04 13:41 52.30682 4.77460 -2 ft 7 kts 173°
2026-05-04 13:41 52.30627 4.77495 -2 ft 11 kts 151°
2026-05-04 13:42 52.30475 4.77622 -2 ft 12 kts 152°
2026-05-04 13:42 52.30405 4.77611 -2 ft 11 kts 226°
2026-05-04 13:42 52.30392 4.77581 -3 ft 0 kts 237°
2026-05-04 13:43 52.30374 4.77534 -3 ft 24 kts 237°
2026-05-04 13:43 52.30141 4.76930 -4 ft 99 kts 238°
2026-05-04 13:43 52.29664 4.75675 21 ft 157 kts 241°
2026-05-04 13:43 52.29084 4.74113 723 ft 161 kts 240°
2026-05-04 13:44 52.28481 4.72502 1541 ft 169 kts 240°
2026-05-04 13:44 52.27837 4.70823 2226 ft 186 kts 240°
2026-05-04 13:44 52.27088 4.68945 2732 ft 206 kts 232°
2026-05-04 13:44 52.26365 4.67622 2989 ft 223 kts 222°
2026-05-04 13:45 52.25036 4.66346 3606 ft 229 kts 198°
2026-05-04 13:45 52.23420 4.66098 4252 ft 239 kts 170°
2026-05-04 13:45 52.21918 4.67122 5192 ft 240 kts 144°
2026-05-04 13:45 52.20708 4.69067 5920 ft 246 kts 128°
2026-05-04 13:46 52.19778 4.71451 6665 ft 254 kts 116°
2026-05-04 13:46 52.19147 4.74255 7173 ft 273 kts 105°
2026-05-04 13:46 52.18702 4.77317 7878 ft 281 kts 103°
2026-05-04 13:46 52.18275 4.80462 8637 ft 287 kts 103°
2026-05-04 13:47 52.17839 4.83676 9430 ft 292 kts 103°
2026-05-04 13:47 52.17397 4.86936 10209 ft 297 kts 103°
2026-05-04 13:47 52.16935 4.90332 10562 ft 319 kts 103°
2026-05-04 13:47 52.16434 4.93987 10799 ft 341 kts 103°
2026-05-04 13:48 52.15911 4.97814 11385 ft 351 kts 104°
2026-05-04 13:48 52.15376 5.01719 12137 ft 355 kts 104°
2026-05-04 13:48 52.14835 5.05670 12898 ft 359 kts 104°
2026-05-04 13:48 52.14287 5.09655 13625 ft 363 kts 104°
2026-05-04 13:49 52.13732 5.13678 14347 ft 367 kts 104°
2026-05-04 13:49 52.13170 5.17740 15096 ft 369 kts 104°
2026-05-04 13:49 52.12602 5.21841 15788 ft 373 kts 104°
2026-05-04 13:49 52.12028 5.25975 16435 ft 377 kts 104°
2026-05-04 13:50 52.11445 5.30153 17125 ft 380 kts 104°
2026-05-04 13:50 52.10854 5.34367 17807 ft 384 kts 105°
2026-05-04 13:50 52.10268 5.38541 18411 ft 388 kts 105°
2026-05-04 13:50 52.09664 5.42828 19001 ft 391 kts 105°
2026-05-04 13:51 52.09053 5.47157 19549 ft 396 kts 105°
2026-05-04 13:51 52.08432 5.51551 20091 ft 400 kts 105°
2026-05-04 13:51 52.07806 5.55972 20668 ft 403 kts 105°
2026-05-04 13:51 52.07170 5.60439 21181 ft 407 kts 105°
2026-05-04 13:52 52.05153 5.69018 22177 ft 409 kts 124°
2026-05-04 13:52 52.03508 5.72766 22661 ft 408 kts 134°
2026-05-04 13:52 52.01643 5.76178 23142 ft 410 kts 135°
2026-05-04 13:53 51.99730 5.79647 23608 ft 415 kts 135°
2026-05-04 13:53 51.97821 5.83169 24094 ft 417 kts 134°
2026-05-04 13:53 51.95910 5.86731 24549 ft 420 kts 135°
2026-05-04 13:54 51.92055 5.93914 25447 ft 424 kts 135°
2026-05-04 13:54 51.90112 5.97529 25903 ft 426 kts 135°
2026-05-04 13:54 51.86197 6.04791 26747 ft 430 kts 136°
2026-05-04 13:55 51.84221 6.08433 27146 ft 432 kts 137°
2026-05-04 13:55 51.80225 6.15740 27881 ft 436 kts 137°
2026-05-04 13:55 51.78211 6.19420 28260 ft 437 kts 137°
2026-05-04 13:56 51.76191 6.23105 28614 ft 439 kts 137°
2026-05-04 13:56 51.74165 6.26802 28941 ft 441 kts 138°
2026-05-04 13:56 51.70079 6.34254 29594 ft 445 kts 138°
2026-05-04 13:57 51.68723 6.36730 29803 ft 446 kts 138°
2026-05-04 13:57 51.66664 6.40478 30124 ft 447 kts 138°
2026-05-04 13:58 51.60411 6.51806 30841 ft 455 kts 138°
2026-05-04 13:58 51.56208 6.59402 31588 ft 453 kts 138°
2026-05-04 13:58 51.54119 6.63172 31897 ft 453 kts 138°
2026-05-04 13:59 51.52014 6.66963 32182 ft 453 kts 138°
2026-05-04 13:59 51.49913 6.70739 32501 ft 453 kts 138°
2026-05-04 13:59 51.45716 6.78271 33095 ft 453 kts 138°
2026-05-04 14:00 51.43618 6.82030 33392 ft 452 kts 138°
2026-05-04 14:00 51.39455 6.89561 33984 ft 453 kts 136°
2026-05-04 14:00 51.37467 6.93496 34249 ft 455 kts 134°
2026-05-04 14:01 51.35523 6.97476 34541 ft 454 kts 134°
2026-05-04 14:01 51.33581 7.01464 34807 ft 453 kts 134°
2026-05-04 14:01 51.29672 7.09367 35312 ft 453 kts 134°
2026-05-04 14:02 51.27707 7.13296 35581 ft 452 kts 134°
2026-05-04 14:02 51.25837 7.17254 35812 ft 455 kts 130°
2026-05-04 14:02 51.24049 7.21513 36017 ft 456 kts 128°
2026-05-04 14:02 51.22390 7.25629 36226 ft 457 kts 128°
2026-05-04 14:03 51.20685 7.29902 36447 ft 456 kts 128°
2026-05-04 14:03 51.18979 7.34159 36637 ft 456 kts 128°
2026-05-04 14:03 51.17260 7.38413 36853 ft 456 kts 128°
2026-05-04 14:03 51.15540 7.42635 36993 ft 456 kts 128°
2026-05-04 14:04 51.12057 7.51109 36991 ft 463 kts 128°
2026-05-04 14:04 51.08508 7.59697 36986 ft 465 kts 128°
2026-05-04 14:05 51.03131 7.72500 36973 ft 463 kts 129°
2026-05-04 14:06 50.99514 7.80944 36978 ft 462 kts 129°
2026-05-04 14:06 50.95903 7.89365 36989 ft 461 kts 129°
2026-05-04 14:07 50.92297 7.97766 36999 ft 461 kts 129°
2026-05-04 14:07 50.88687 8.06155 36992 ft 461 kts 129°
2026-05-04 14:08 50.85073 8.14525 36991 ft 461 kts 129°
2026-05-04 14:08 50.81452 8.22889 36990 ft 460 kts 129°
2026-05-04 14:09 50.76019 8.35394 36988 ft 460 kts 129°
2026-05-04 14:10 50.70572 8.47860 36993 ft 459 kts 129°
2026-05-04 14:10 50.66939 8.56147 36989 ft 460 kts 129°
2026-05-04 14:11 50.63293 8.64435 36988 ft 460 kts 129°
2026-05-04 14:11 50.57819 8.76828 36984 ft 460 kts 129°
2026-05-04 14:12 50.54161 8.85075 36978 ft 460 kts 129°
2026-05-04 14:13 50.48688 8.97370 36982 ft 460 kts 129°
2026-05-04 14:13 50.45015 9.05590 36971 ft 460 kts 129°
2026-05-04 14:14 50.41339 9.13790 36978 ft 459 kts 129°
2026-05-04 14:14 50.35817 9.26065 36972 ft 459 kts 129°
2026-05-04 14:15 50.28425 9.42398 36970 ft 459 kts 130°
2026-05-04 14:16 50.22905 9.54529 36970 ft 458 kts 130°
2026-05-04 14:17 50.17360 9.66662 36985 ft 457 kts 130°
2026-05-04 14:18 50.11786 9.78803 36985 ft 457 kts 130°
2026-05-04 14:19 50.04385 9.94839 36992 ft 457 kts 130°
2026-05-04 14:19 50.00661 10.02866 36990 ft 458 kts 130°
2026-05-04 14:20 49.96927 10.10894 36990 ft 458 kts 130°
2026-05-04 14:20 49.93188 10.18907 36992 ft 459 kts 130°
2026-05-04 14:21 49.87559 10.30931 36983 ft 459 kts 130°
2026-05-04 14:21 49.83800 10.38928 36984 ft 459 kts 130°
2026-05-04 14:22 49.80037 10.46909 36985 ft 459 kts 130°
2026-05-04 14:22 49.76273 10.54870 36989 ft 459 kts 130°
2026-05-04 14:23 49.70616 10.66786 36989 ft 458 kts 130°
2026-05-04 14:24 49.66837 10.74717 36982 ft 458 kts 130°
2026-05-04 14:24 49.63057 10.82629 36982 ft 458 kts 130°
2026-05-04 14:25 49.59272 10.90529 36980 ft 458 kts 130°
2026-05-04 14:25 49.53587 11.02348 36975 ft 458 kts 130°
2026-05-04 14:26 49.50339 11.10852 36980 ft 462 kts 120°
2026-05-04 14:26 49.47482 11.19731 36970 ft 464 kts 119°
2026-05-04 14:27 49.44617 11.28610 36972 ft 463 kts 120°
2026-05-04 14:27 49.41716 11.37448 36973 ft 463 kts 120°
2026-05-04 14:28 49.38791 11.46271 36971 ft 464 kts 120°
2026-05-04 14:28 49.35851 11.55091 36974 ft 464 kts 120°
2026-05-04 14:29 49.29971 11.72646 36971 ft 464 kts 120°
2026-05-04 14:30 49.27015 11.81433 36960 ft 464 kts 120°
2026-05-04 14:31 49.22569 11.94584 36962 ft 464 kts 120°
2026-05-04 14:32 49.16604 12.12129 36962 ft 464 kts 120°
2026-05-04 14:32 49.13615 12.20878 36969 ft 464 kts 120°
2026-05-04 14:33 49.10617 12.29622 36961 ft 465 kts 120°
2026-05-04 14:33 49.07608 12.38364 36953 ft 465 kts 120°
2026-05-04 14:34 49.04589 12.47107 36953 ft 466 kts 120°
2026-05-04 14:34 49.01587 12.55771 36953 ft 465 kts 120°
2026-05-04 14:35 48.98556 12.64491 36951 ft 465 kts 120°
2026-05-04 14:35 48.95527 12.73177 36951 ft 465 kts 120°
2026-05-04 14:36 48.92487 12.81860 36952 ft 465 kts 120°
2026-05-04 14:36 48.89441 12.90536 36955 ft 465 kts 120°
2026-05-04 14:37 48.86390 12.99200 36955 ft 465 kts 120°
2026-05-04 14:37 48.83335 13.07842 36950 ft 465 kts 120°
2026-05-04 14:38 48.80267 13.16493 36949 ft 465 kts 120°
2026-05-04 14:38 48.77195 13.25126 36941 ft 465 kts 120°
2026-05-04 14:39 48.74115 13.33752 36946 ft 465 kts 120°
2026-05-04 14:39 48.71029 13.42371 36941 ft 465 kts 120°
2026-05-04 14:40 48.66391 13.55273 36942 ft 465 kts 120°
2026-05-04 14:40 48.63163 13.63752 36939 ft 465 kts 123°
2026-05-04 14:41 48.59709 13.72003 36948 ft 465 kts 124°
2026-05-04 14:42 48.53354 13.87088 36948 ft 465 kts 124°
2026-05-04 14:42 48.49901 13.95344 36947 ft 465 kts 124°
2026-05-04 14:43 48.46451 14.03585 36942 ft 464 kts 124°
2026-05-04 14:43 48.43003 14.11800 36943 ft 464 kts 124°
2026-05-04 14:44 48.39538 14.20020 36926 ft 465 kts 124°
2026-05-04 14:44 48.36068 14.28225 36913 ft 465 kts 124°
2026-05-04 14:45 48.32591 14.36427 36918 ft 465 kts 124°
2026-05-04 14:45 48.29110 14.44609 36904 ft 465 kts 124°
2026-05-04 14:46 48.25626 14.52779 36917 ft 466 kts 124°
2026-05-04 14:46 48.22127 14.60959 36915 ft 465 kts 124°
2026-05-04 14:47 48.18630 14.69104 36914 ft 465 kts 124°
2026-05-04 14:47 48.15125 14.77243 36929 ft 464 kts 124°
2026-05-04 14:48 48.11623 14.85355 36938 ft 464 kts 124°
2026-05-04 14:48 48.08116 14.93455 36940 ft 464 kts 124°
2026-05-04 14:49 48.04627 15.01484 36946 ft 463 kts 124°
2026-05-04 14:49 48.01088 15.09610 36948 ft 463 kts 124°
2026-05-04 14:50 47.97569 15.17667 36953 ft 463 kts 123°
2026-05-04 14:50 47.94067 15.25663 36963 ft 464 kts 123°
2026-05-04 14:51 47.90536 15.33699 36964 ft 463 kts 124°
2026-05-04 14:51 47.86740 15.41447 36972 ft 462 kts 129°
2026-05-04 14:52 47.82674 15.48856 36967 ft 462 kts 130°
2026-05-04 14:52 47.78598 15.56252 36971 ft 462 kts 129°
2026-05-04 14:53 47.74551 15.63681 36969 ft 462 kts 129°
2026-05-04 14:53 47.70519 15.71110 36979 ft 462 kts 129°
2026-05-04 14:54 47.66460 15.78578 36972 ft 462 kts 129°
2026-05-04 14:54 47.62419 15.85989 36974 ft 462 kts 129°
2026-05-04 14:55 47.58402 15.93336 36982 ft 462 kts 129°
2026-05-04 14:55 47.54353 16.00721 36983 ft 462 kts 129°
2026-05-04 14:56 47.50298 16.08093 36983 ft 462 kts 129°
2026-05-04 14:56 47.46242 16.15447 36985 ft 462 kts 129°
2026-05-04 14:57 47.42172 16.22807 36990 ft 462 kts 129°
2026-05-04 14:57 47.38105 16.30144 36992 ft 462 kts 129°
2026-05-04 14:58 47.34031 16.37475 36992 ft 463 kts 129°
2026-05-04 14:58 47.29943 16.44812 36991 ft 463 kts 129°
2026-05-04 14:59 47.25875 16.52148 36994 ft 463 kts 129°
2026-05-04 15:00 47.19825 16.63217 37003 ft 462 kts 128°
2026-05-04 15:00 47.15790 16.70577 37007 ft 462 kts 128°
2026-05-04 15:01 47.09745 16.81546 37009 ft 463 kts 129°
2026-05-04 15:01 47.05660 16.88929 37013 ft 463 kts 128°
2026-05-04 15:02 47.01622 16.96210 37022 ft 463 kts 129°
2026-05-04 15:02 46.97548 17.03534 37016 ft 463 kts 128°
2026-05-04 15:03 46.93473 17.10845 37019 ft 463 kts 128°
2026-05-04 15:03 46.89391 17.18145 37022 ft 463 kts 129°
2026-05-04 15:04 46.85304 17.25433 37015 ft 464 kts 128°
2026-05-04 15:04 46.81205 17.32725 37022 ft 464 kts 129°
2026-05-04 15:05 46.77104 17.40000 37016 ft 464 kts 129°
2026-05-04 15:05 46.73032 17.47207 37017 ft 463 kts 129°
2026-05-04 15:06 46.68938 17.54436 37031 ft 462 kts 129°
2026-05-04 15:07 46.62789 17.65259 37025 ft 462 kts 129°
2026-05-04 15:07 46.58725 17.72507 37026 ft 462 kts 127°
2026-05-04 15:08 46.54793 17.79900 37042 ft 462 kts 127°
2026-05-04 15:08 46.50876 17.87297 37039 ft 462 kts 127°
2026-05-04 15:09 46.46934 17.94677 37049 ft 462 kts 127°
2026-05-04 15:09 46.42975 18.02039 37053 ft 463 kts 127°
2026-05-04 15:10 46.37016 18.13066 37057 ft 464 kts 127°
2026-05-04 15:11 46.31049 18.24072 37065 ft 463 kts 127°
2026-05-04 15:11 46.27064 18.31399 37068 ft 464 kts 127°
2026-05-04 15:12 46.23080 18.38702 37062 ft 464 kts 127°
2026-05-04 15:12 46.19085 18.46008 37067 ft 463 kts 127°
2026-05-04 15:13 46.15088 18.53299 37076 ft 463 kts 127°
2026-05-04 15:13 46.11086 18.60580 37074 ft 464 kts 127°
2026-05-04 15:14 46.07074 18.67860 37075 ft 464 kts 127°
2026-05-04 15:14 46.03062 18.75123 37061 ft 464 kts 127°
2026-05-04 15:15 45.99046 18.82373 37064 ft 463 kts 127°
2026-05-04 15:15 45.95032 18.89605 37060 ft 463 kts 127°
2026-05-04 15:16 45.88490 18.99819 37072 ft 464 kts 135°
2026-05-04 15:17 45.81478 19.09411 37067 ft 465 kts 135°
2026-05-04 15:17 45.74500 19.19072 37063 ft 466 kts 134°
2026-05-04 15:18 45.69854 19.25542 37067 ft 465 kts 134°
2026-05-04 15:19 45.62916 19.35177 37069 ft 466 kts 134°
2026-05-04 15:19 45.55928 19.44840 37065 ft 467 kts 134°
2026-05-04 15:20 45.51260 19.51276 37064 ft 467 kts 134°
2026-05-04 15:20 45.46591 19.57698 37061 ft 466 kts 134°
2026-05-04 15:21 45.41921 19.64104 37070 ft 466 kts 134°
2026-05-04 15:22 45.34914 19.73691 37074 ft 466 kts 134°
2026-05-04 15:22 45.27903 19.83245 37082 ft 466 kts 134°
2026-05-04 15:23 45.23213 19.89618 37088 ft 466 kts 134°
2026-05-04 15:23 45.18523 19.95976 37092 ft 466 kts 134°
2026-05-04 15:24 45.09119 20.08677 37071 ft 467 kts 134°
2026-05-04 15:25 45.04414 20.15009 37073 ft 467 kts 134°
2026-05-04 15:26 44.97355 20.24481 37076 ft 466 kts 135°
2026-05-04 15:26 44.90326 20.33879 37077 ft 466 kts 135°
2026-05-04 15:27 44.83261 20.43291 37077 ft 466 kts 135°
2026-05-04 15:28 44.76185 20.52684 37078 ft 466 kts 135°
2026-05-04 15:29 44.69874 20.61033 37077 ft 466 kts 135°
2026-05-04 15:30 44.53328 20.82807 37085 ft 466 kts 135°
2026-05-04 15:31 44.46226 20.92096 37081 ft 465 kts 135°
2026-05-04 15:32 44.34391 21.07506 37077 ft 464 kts 135°
2026-05-04 15:34 44.22583 21.22788 37083 ft 463 kts 135°
2026-05-04 15:34 44.15506 21.31910 37094 ft 462 kts 136°
2026-05-04 15:35 44.08431 21.40996 37085 ft 461 kts 136°
2026-05-04 15:36 44.01362 21.50042 37081 ft 460 kts 136°
2026-05-04 15:36 43.96683 21.56013 37081 ft 460 kts 136°
2026-05-04 15:37 43.91978 21.62005 37084 ft 459 kts 136°
2026-05-04 15:37 43.87270 21.67986 37083 ft 458 kts 136°
2026-05-04 15:38 43.82560 21.73954 37085 ft 458 kts 136°
2026-05-04 15:38 43.77860 21.79900 37089 ft 458 kts 136°
2026-05-04 15:39 43.73150 21.85845 37080 ft 457 kts 136°
2026-05-04 15:40 43.66121 21.94690 37076 ft 457 kts 136°
2026-05-04 15:40 43.61412 22.00601 37079 ft 457 kts 136°
2026-05-04 15:41 43.56743 22.06584 37073 ft 458 kts 135°
2026-05-04 15:41 43.52101 22.12589 37072 ft 458 kts 135°
2026-05-04 15:42 43.47449 22.18584 37079 ft 458 kts 136°
2026-05-04 15:42 43.42782 22.24572 37074 ft 459 kts 136°
2026-05-04 15:43 43.38108 22.30552 37074 ft 459 kts 136°
2026-05-04 15:43 43.33424 22.36526 37075 ft 459 kts 136°
2026-05-04 15:44 43.28739 22.42491 37071 ft 459 kts 136°
2026-05-04 15:44 43.24054 22.48445 37083 ft 459 kts 136°
2026-05-04 15:45 43.19371 22.54383 37090 ft 459 kts 136°
2026-05-04 15:45 43.14674 22.60323 37084 ft 460 kts 136°
2026-05-04 15:46 43.09974 22.66254 37082 ft 460 kts 136°
2026-05-04 15:46 43.05268 22.72181 37083 ft 459 kts 136°
2026-05-04 15:47 43.00561 22.78098 37083 ft 460 kts 136°
2026-05-04 15:47 42.95847 22.84010 37079 ft 460 kts 136°
2026-05-04 15:48 42.91136 22.89905 37098 ft 459 kts 136°
2026-05-04 15:48 42.84065 22.98728 37096 ft 459 kts 136°
2026-05-04 15:49 42.79349 23.04596 37092 ft 459 kts 136°
2026-05-04 15:49 42.74625 23.10463 37095 ft 459 kts 136°
2026-05-04 15:50 42.69939 23.16271 37108 ft 459 kts 136°
2026-05-04 15:50 42.65185 23.22149 37094 ft 459 kts 136°
2026-05-04 15:51 42.60488 23.27945 37107 ft 459 kts 136°
2026-05-04 15:51 42.55754 23.33774 37102 ft 459 kts 136°
2026-05-04 15:52 42.51027 23.39579 37093 ft 459 kts 136°
2026-05-04 15:52 42.46295 23.45378 37098 ft 458 kts 136°
2026-05-04 15:53 42.41567 23.51163 37095 ft 458 kts 136°
2026-05-04 15:53 42.36831 23.56946 37112 ft 458 kts 136°
2026-05-04 15:54 42.32093 23.62717 37099 ft 458 kts 136°
2026-05-04 15:54 42.27357 23.68474 37094 ft 458 kts 136°
2026-05-04 15:55 42.22619 23.74221 37098 ft 458 kts 136°
2026-05-04 15:55 42.17901 23.79932 37084 ft 458 kts 136°
2026-05-04 15:56 42.13162 23.85658 37085 ft 457 kts 136°
2026-05-04 15:56 42.08426 23.91366 37081 ft 457 kts 137°
2026-05-04 15:57 42.03686 23.97069 37084 ft 456 kts 137°
2026-05-04 15:57 41.98946 24.02759 37087 ft 456 kts 137°
2026-05-04 15:58 41.94210 24.08432 37082 ft 457 kts 137°
2026-05-04 15:58 41.89459 24.14111 37075 ft 457 kts 137°
2026-05-04 15:59 41.84713 24.19771 37072 ft 457 kts 137°
2026-05-04 15:59 41.79957 24.25434 37061 ft 457 kts 137°
2026-05-04 16:00 41.75200 24.31087 37055 ft 457 kts 137°
2026-05-04 16:00 41.70433 24.36739 37054 ft 457 kts 137°
2026-05-04 16:01 41.65671 24.42388 37057 ft 457 kts 136°
2026-05-04 16:01 41.61067 24.48259 37050 ft 458 kts 134°
2026-05-04 16:02 41.56553 24.54185 37055 ft 458 kts 134°
2026-05-04 16:03 41.49694 24.63080 37053 ft 458 kts 134°
2026-05-04 16:03 41.45067 24.69019 37059 ft 459 kts 134°
2026-05-04 16:04 41.40494 24.74872 37055 ft 459 kts 134°
2026-05-04 16:04 41.33558 24.83720 37055 ft 460 kts 134°
2026-05-04 16:05 41.28933 24.89609 37044 ft 460 kts 134°
2026-05-04 16:06 41.21989 24.98430 37046 ft 460 kts 134°
2026-05-04 16:07 41.12720 25.10161 37046 ft 460 kts 134°
2026-05-04 16:08 41.03436 25.21860 37045 ft 460 kts 134°
2026-05-04 16:09 40.91807 25.36448 37046 ft 461 kts 134°
2026-05-04 16:10 40.82489 25.48088 37059 ft 461 kts 134°
2026-05-04 16:11 40.73155 25.59695 37055 ft 462 kts 134°
2026-05-04 16:12 40.60035 25.76314 37072 ft 461 kts 130°
2026-05-04 16:13 40.51605 25.89061 37073 ft 461 kts 129°
2026-05-04 16:14 40.43134 26.01688 37082 ft 463 kts 129°
2026-05-04 16:16 40.32377 26.17539 37084 ft 464 kts 129°
2026-05-04 16:17 40.21646 26.33271 37077 ft 465 kts 129°
2026-05-04 16:18 40.13026 26.45852 37075 ft 464 kts 129°
2026-05-04 16:19 40.02244 26.61514 37070 ft 464 kts 129°
2026-05-04 16:20 39.91438 26.77132 37060 ft 465 kts 130°
2026-05-04 16:22 39.80563 26.92767 37059 ft 468 kts 130°
2026-05-04 16:23 39.67390 27.11606 37049 ft 470 kts 130°
2026-05-04 16:25 39.54158 27.30415 37052 ft 471 kts 130°
2026-05-04 16:26 39.38682 27.52260 37052 ft 471 kts 130°
2026-05-04 16:28 39.27624 27.67782 37053 ft 471 kts 130°
2026-05-04 16:29 39.12051 27.89506 37044 ft 472 kts 131°
2026-05-04 16:31 39.00872 28.05005 37044 ft 474 kts 131°
2026-05-04 16:32 38.87349 28.23653 37046 ft 477 kts 131°
2026-05-04 16:33 38.78268 28.36116 37038 ft 479 kts 132°
2026-05-04 16:34 38.71464 28.45418 37045 ft 479 kts 132°
2026-05-04 16:35 38.57754 28.64078 37026 ft 481 kts 132°
2026-05-04 16:36 38.50880 28.73394 37031 ft 480 kts 132°
2026-05-04 16:37 38.43979 28.82716 37028 ft 481 kts 133°
2026-05-04 16:38 38.34805 28.95066 36522 ft 475 kts 132°
2026-05-04 16:39 38.28033 29.04151 35773 ft 470 kts 132°
2026-05-04 16:39 38.23526 29.10185 35273 ft 470 kts 132°
2026-05-04 16:40 38.19014 29.16214 34778 ft 471 kts 132°
2026-05-04 16:40 38.14496 29.22238 34286 ft 471 kts 132°
2026-05-04 16:41 38.09985 29.28241 33795 ft 469 kts 131°
2026-05-04 16:41 38.03262 29.37168 33040 ft 463 kts 131°
2026-05-04 16:42 37.96631 29.45946 32286 ft 455 kts 131°
2026-05-04 16:43 37.92303 29.51666 31799 ft 450 kts 131°
2026-05-04 16:43 37.88117 29.57354 31323 ft 433 kts 130°
2026-05-04 16:43 37.86090 29.60143 31025 ft 427 kts 130°
2026-05-04 16:44 37.78137 29.71054 29513 ft 414 kts 129°
2026-05-04 16:45 37.74231 29.76379 28640 ft 411 kts 130°
2026-05-04 16:46 37.68466 29.84219 27455 ft 403 kts 130°
2026-05-04 16:46 37.64663 29.89380 26650 ft 400 kts 130°
2026-05-04 16:47 37.60897 29.94483 25875 ft 395 kts 130°
2026-05-04 16:47 37.57174 29.99519 25082 ft 390 kts 131°
2026-05-04 16:48 37.51646 30.06984 23910 ft 385 kts 131°
2026-05-04 16:48 37.49827 30.09435 23531 ft 383 kts 131°
2026-05-04 16:49 37.46203 30.14315 22743 ft 380 kts 132°
2026-05-04 16:49 37.42589 30.19175 21981 ft 377 kts 132°
2026-05-04 16:50 37.39021 30.23965 21246 ft 373 kts 132°
2026-05-04 16:50 37.35566 30.28594 20731 ft 354 kts 132°
2026-05-04 16:51 37.32197 30.33106 19689 ft 354 kts 133°
2026-05-04 16:51 37.30537 30.35327 19264 ft 352 kts 133°
2026-05-04 16:51 37.27201 30.39782 18430 ft 349 kts 133°
2026-05-04 16:52 37.23915 30.44168 17975 ft 342 kts 133°
2026-05-04 16:52 37.22293 30.46331 17851 ft 339 kts 133°
2026-05-04 16:53 37.18713 30.50065 17154 ft 335 kts 163°
2026-05-04 16:53 37.12043 30.50158 16159 ft 323 kts 181°
2026-05-04 16:54 37.09849 30.50826 15813 ft 330 kts 154°
2026-05-04 16:55 37.05580 30.59912 15155 ft 300 kts 109°
2026-05-04 16:55 37.04063 30.64751 14691 ft 295 kts 113°
2026-05-04 16:56 37.01092 30.67997 14158 ft 287 kts 168°
2026-05-04 16:56 36.95252 30.67875 13230 ft 280 kts 188°
2026-05-04 16:57 36.93307 30.67693 12823 ft 281 kts 187°
2026-05-04 16:57 36.89395 30.67353 11999 ft 283 kts 187°
2026-05-04 16:58 36.83393 30.66850 10564 ft 289 kts 186°
2026-05-04 16:58 36.82040 30.66739 10279 ft 288 kts 186°
2026-05-04 16:59 36.78158 30.66419 9943 ft 267 kts 186°
2026-05-04 17:00 36.71011 30.65827 8712 ft 255 kts 186°
2026-05-04 17:00 36.65599 30.65495 7373 ft 265 kts 171°
2026-05-04 17:01 36.62877 30.68255 6524 ft 257 kts 111°
2026-05-04 17:01 36.62915 30.72370 5606 ft 239 kts 54°
2026-05-04 17:02 36.65443 30.74708 4752 ft 224 kts 16°
2026-05-04 17:02 36.68398 30.75800 3946 ft 217 kts 14°
2026-05-04 17:03 36.69807 30.76288 3781 ft 203 kts 11°
2026-05-04 17:03 36.71155 30.76623 3542 ft 193 kts
2026-05-04 17:03 36.73711 30.77022 3071 ft 177 kts
2026-05-04 17:04 36.76042 30.77344 2623 ft 160 kts
2026-05-04 17:04 36.78169 30.77637 2221 ft 152 kts
2026-05-04 17:05 36.80256 30.77924 1844 ft 146 kts
2026-05-04 17:05 36.82204 30.78191 1445 ft 139 kts
2026-05-04 17:06 36.84188 30.78462 1069 ft 145 kts 360°
2026-05-04 17:06 36.85180 30.78600 874 ft 144 kts 360°
2026-05-04 17:07 36.87133 30.78870 503 ft 140 kts 359°
2026-05-04 17:07 36.87778 30.78960 369 ft 136 kts
2026-05-04 17:07 36.88989 30.79131 177 ft 124 kts 358°
2026-05-04 17:07 36.89678 30.79209 176 ft 69 kts
2026-05-04 17:08 36.89988 30.79260 174 ft 34 kts
2026-05-04 17:08 36.90363 30.79376 175 ft 24 kts 37°
2026-05-04 17:08 36.90488 30.79493 175 ft 17 kts 36°
2026-05-04 17:09 36.90499 30.79501 175 ft 0 kts 25°
2026-05-04 17:10 36.90496 30.79553 175 ft 6 kts 196°
2026-05-04 17:11 36.90452 30.79545 175 ft 7 kts 185°
2026-05-04 17:11 36.90389 30.79535 175 ft 11 kts 187°
2026-05-04 17:11 36.90232 30.79516 174 ft 11 kts 186°
2026-05-04 17:12 36.90146 30.79502 174 ft 14 kts 187°
2026-05-04 17:12 36.89916 30.79471 175 ft 18 kts 186°
2026-05-04 17:13 36.89661 30.79539 175 ft 13 kts 95°
2026-05-04 17:14 36.89632 30.79858 175 ft 12 kts 97°
2026-05-04 17:14 36.89624 30.79952 175 ft 9 kts 98°
2026-05-04 17:14 36.89670 30.80060 175 ft 8 kts 28°
2026-05-04 17:15 36.89701 30.80082 175 ft 0 kts 28°